Wind_Speed
13 13 13 13 13 13 13 12 12 11 11 11 12 11 11 10 9 8 8 8 8 10 11 12 14 15 16 17 18 19 19 20 20 21 21 21 21 20 20 20 20 19 18 17
14 14 14 13 13 13 14 13 13 12 11 12 12 12 12 11 10 10 9 9 9 10 11 13 14 15 15 16 17 18 19 19 19 20 20 20 20 20 20 20 20 19 18 17
13 14 14 13 12 14 14 14 14 13 13 13 13 13 13 12 12 11 10 10 10 11 12 13 14 14 15 15 16 17 18 18 19 20 20 20 19 19 19 19 19 19 18 17
13 14 14 12 14 14 14 13 14 13 13 13 13 14 13 13 13 12 12 11 11 12 13 13 14 14 15 15 16 17 18 18 19 19 19 19 19 19 19 19 19 18 17 16
14 14 13 12 14 14 14 13 14 14 14 14 14 14 14 14 14 14 13 13 13 13 13 14 14 15 15 16 16 17 18 18 19 19 19 19 19 19 19 19 18 18 17 16
16 15 13 12 15 15 15 14 15 16 16 16 16 16 16 16 16 16 15 15 14 14 14 15 15 15 16 16 17 17 18 18 19 19 19 19 19 19 19 18 18 18 17 16
18 17 15 15 17 17 16 16 17 17 17 17 17 17 17 17 17 17 17 16 16 16 16 16 16 16 16 17 17 18 18 19 19 19 19 19 19 19 18 18 18 18 17 16
21 20 18 18 19 19 19 19 19 19 20 20 20 20 19 19 19 19 18 18 18 18 17 17 17 17 18 18 18 18 19 20 20 20 19 19 19 19 18 18 18 18 17 17
24 23 22 23 22 22 22 22 22 22 22 22 22 22 21 21 21 20 20 20 20 20 19 19 19 19 19 19 19 19 20 20 21 20 20 20 20 19 19 19 18 18 18 18
27 25 25 26 26 26 26 26 25 25 24 24 24 24 24 23 23 23 23 22 22 22 21 21 21 21 21 20 20 21 21 21 21 21 21 20 20 20 20 20 19 19 19 19
31 30 30 29 30 30 29 28 28 28 27 27 27 26 26 26 26 25 25 24 24 24 24 23 23 23 23 22 22 22 22 22 22 22 22 21 21 21 21 21 21 20 20 20
35 34 35 33 33 33 32 31 31 31 30 30 30 29 29 28 28 28 27 27 27 26 26 26 25 25 25 24 24 24 23 23 23 23 23 23 23 23 23 23 22 22 22 21
40 39 39 37 36 36 36 35 35 34 34 33 33 32 32 31 31 30 30 29 29 29 28 28 27 27 27 27 26 26 25 25 25 25 25 25 25 25 25 24 24 23 23 23
43 43 42 41 40 40 39 39 38 37 37 36 36 35 35 34 34 33 32 31 31 31 30 30 29 29 29 29 28 28 27 27 27 27 27 27 27 27 26 26 26 26 26 25
45 46 45 44 43 43 42 41 40 39 39 38 38 38 37 37 36 35 34 34 34 33 33 32 31 31 31 31 30 30 30 30 30 29 29 29 29 29 28 28 28 28 28 28
46 47 47 46 45 44 44 43 42 41 41 40 40 39 39 38 38 37 37 36 36 36 35 35 34 34 33 33 33 32 32 32 32 32 32 32 31 31 31 31 30 30 31 30
47 47 48 48 47 46 46 45 44 43 42 42 42 41 41 41 40 39 39 38 38 38 38 37 37 36 36 36 35 35 35 35 34 34 34 34 34 34 33 33 33 33 33 32
49 49 48 48 47 47 47 46 46 45 44 44 44 44 43 43 42 42 41 41 40 40 40 39 39 39 38 38 38 37 37 37 37 37 37 36 36 36 36 36 35 35 35 34
49 49 48 48 48 47 47 47 47 47 46 46 45 45 45 45 44 44 43 43 43 42 42 41 41 41 41 40 40 39 39 39 39 39 39 39 38 38 38 38 37 37 37 36
48 48 48 48 49 48 48 48 48 48 48 47 47 47 47 47 47 46 45 45 45 45 45 44 43 43 42 42 42 42 42 42 42 41 41 40 40 40 39 39 39 39 38 38
47 48 47 48 48 48 48 48 48 48 48 48 48 48 48 49 49 48 48 48 48 47 47 46 46 45 45 44 44 44 43 43 43 42 42 42 41 41 41 41 41 40 40 40
48 48 48 48 47 47 48 48 48 48 49 49 49 49 50 50 50 49 49 49 49 48 48 48 47 47 46 46 45 45 45 44 44 44 43 43 43 43 43 43 42 42 42 42
47 48 48 48 48 48 49 49 49 49 49 49 50 50 50 51 51 50 50 50 49 49 48 48 48 48 47 47 47 46 46 46 46 45 45 45 44 44 44 44 44 43 43 43
45 46 47 47 48 48 49 49 48 49 49 49 49 50 50 50 50 51 51 51 50 50 49 49 49 49 48 48 48 47 47 47 46 46 46 46 45 45 45 45 44 44 44 44
44 44 44 44 45 46 47 47 47 47 47 48 48 48 49 49 49 50 50 50 50 50 49 49 49 49 49 49 48 48 47 47 46 46 46 46 45 45 45 45 45 44 44 44
41 41 42 42 43 44 44 45 45 46 46 46 47 47 48 48 49 49 49 49 49 49 49 50 49 49 48 48 48 47 46 46 46 45 45 45 44 44 44 44 44 44 43 43
40 40 40 40 40 40 42 43 43 43 44 45 45 46 46 46 46 47 47 48 48 48 48 48 47 47 47 46 46 45 45 45 45 44 44 44 44 44 44 43 43 42 42 42
Wind_Direction
254 256 256 255 255 258 259 258 257 249 244 242 243 242 244 247 254 263 273 286 302 314 323 331 337 341 344 347 350 352 354 356 357 359 360 1 2 4 6 7 7 8 10 10
258 260 260 259 261 262 261 258 256 248 242 242 244 244 246 250 255 262 270 282 296 307 317 326 332 337 341 344 347 350 353 354 355 356 358 359 360 2 4 4 5 5 4 5
262 261 263 262 260 261 261 260 255 249 245 245 246 246 248 251 257 261 268 279 291 303 312 321 326 331 336 340 344 348 350 351 352 354 355 356 357 358 360 1 1 2 2 3
266 263 265 265 261 262 261 258 254 252 249 248 248 248 249 252 255 260 266 275 285 296 307 315 321 326 330 335 339 342 346 347 348 350 351 353 354 354 356 357 358 359 359 359
270 268 266 265 264 263 261 257 256 254 253 252 251 252 252 253 255 260 266 272 281 291 300 309 315 319 324 329 333 337 340 343 345 346 347 348 350 351 352 353 355 357 356 356
270 270 266 264 263 263 261 258 256 257 257 256 255 254 254 255 257 261 266 270 278 286 295 302 307 312 318 323 327 331 334 338 341 343 344 344 345 347 349 352 353 354 355 354
268 268 266 263 261 262 262 258 256 257 259 259 258 257 257 258 259 262 265 270 277 284 290 295 301 307 312 317 321 324 328 332 335 337 339 341 341 342 344 347 349 350 349 348
267 267 266 262 261 260 260 259 259 259 259 259 259 259 260 261 262 263 267 271 275 280 285 290 295 301 306 311 314 318 322 326 329 331 333 334 336 337 337 339 342 344 344 343
264 265 265 263 262 261 260 259 258 258 258 259 259 260 260 262 263 265 267 270 274 277 281 286 290 295 300 305 308 312 317 320 322 325 327 328 330 331 332 333 334 335 337 337
263 263 262 262 262 262 260 259 258 258 259 259 259 260 261 261 262 265 268 270 272 275 278 282 286 290 295 299 303 307 311 314 315 318 320 322 323 325 326 327 328 328 328 329
263 262 260 259 260 260 261 260 259 258 259 259 260 260 261 261 262 264 266 269 271 273 276 279 282 285 289 293 297 301 305 308 310 311 313 315 317 318 319 320 321 322 322 322
262 261 260 258 259 261 261 260 260 259 259 259 260 261 261 261 262 263 265 267 269 271 273 276 279 282 285 288 291 295 300 303 306 307 308 310 311 313 313 314 314 315 315 315
262 261 260 260 259 260 261 260 259 259 259 259 259 260 261 261 262 263 264 266 268 270 272 274 277 279 282 285 288 291 295 298 301 303 304 306 307 308 309 309 310 310 310 309
262 261 260 260 259 259 259 260 260 260 260 259 259 259 260 261 262 263 264 266 267 268 271 273 275 278 280 283 285 288 291 294 297 299 301 302 303 303 304 305 306 307 306 306
262 262 261 260 259 259 259 259 259 259 259 259 259 259 259 260 261 262 263 264 266 267 269 271 274 276 278 280 282 285 287 290 292 295 297 298 299 300 300 301 302 303 303 302
261 262 262 261 260 260 260 260 259 259 259 259 259 259 259 259 260 261 262 263 265 266 268 270 272 274 276 278 280 282 284 287 289 291 293 295 296 296 297 298 299 300 300 299
261 261 261 262 261 260 259 259 259 258 258 258 258 258 259 259 260 260 260 262 263 265 267 269 270 272 274 276 278 280 282 284 286 288 290 292 294 294 295 296 297 298 297 297
262 261 261 261 261 260 259 259 258 258 257 257 258 258 258 259 260 261 260 261 262 264 266 267 269 271 273 275 277 278 280 283 284 286 288 290 291 292 293 294 295 296 295 294
263 261 260 260 260 259 258 258 257 257 257 257 257 257 258 259 260 260 261 261 262 263 265 266 268 269 271 272 275 277 279 281 283 285 286 287 288 289 291 292 293 294 294 293
263 262 261 259 259 258 258 257 257 256 256 256 256 256 257 257 258 259 260 261 262 263 264 265 267 268 269 271 273 275 278 280 282 283 284 285 286 287 289 290 291 292 293 292
261 260 259 259 258 257 257 256 256 256 255 255 256 256 256 256 257 258 259 260 261 262 263 264 266 268 270 271 273 275 276 278 280 281 282 283 285 286 287 288 289 291 291 291
260 258 257 256 255 256 256 256 255 255 255 255 255 255 255 256 257 258 258 259 260 261 262 264 265 267 269 270 272 274 275 277 278 280 281 282 283 284 285 287 288 290 290 291
260 259 258 257 256 255 255 256 256 256 257 256 255 255 255 255 256 257 258 259 260 261 262 263 265 266 268 270 271 273 274 276 278 278 279 281 282 283 285 286 287 288 289 290
261 260 259 258 258 257 255 255 256 256 257 256 256 256 256 256 257 258 258 259 259 261 262 263 264 266 267 269 270 272 273 275 276 277 279 280 281 283 285 286 287 288 288 289
263 262 260 259 259 258 257 256 255 256 257 257 257 257 257 257 257 257 257 258 258 260 261 262 263 265 267 269 270 272 273 274 275 277 278 279 281 282 284 285 286 287 287 288
264 263 261 261 260 259 258 257 256 256 256 256 256 256 256 256 256 256 256 257 258 259 260 262 263 265 267 268 269 271 272 274 275 276 277 279 281 282 284 285 285 286 286 288
265 264 264 263 263 262 260 259 259 258 257 257 257 256 256 256 257 257 258 258 259 260 260 262 263 264 266 267 269 270 272 273 274 275 276 278 280 282 284 284 285 285 286 287
Height
5821 5821 5822 5822 5823 5823 5823 5823 5824 5825 5825 5826 5826 5827 5827 5827 5828 5828 5828 5827 5826 5825 5823 5822 5819 5817 5814 5812 5809 5806 5802 5798 5795 5791 5787 5783 5779 5775 5771 5767 5763 5759 5756 5752
5818 5818 5818 5819 5820 5820 5820 5820 5821 5821 5822 5823 5823 5824 5824 5825 5825 5825 5825 5825 5824 5823 5821 5819 5817 5815 5813 5810 5807 5804 5801 5797 5794 5790 5787 5783 5779 5775 5771 5767 5764 5760 5756 5753
5815 5815 5815 5817 5817 5816 5817 5817 5818 5818 5820 5819 5820 5820 5821 5821 5822 5822 5822 5821 5821 5820 5818 5817 5815 5813 5811 5808 5805 5803 5799 5796 5793 5789 5786 5782 5778 5775 5771 5767 5764 5760 5757 5753
5812 5813 5813 5816 5813 5813 5814 5814 5815 5815 5816 5816 5817 5817 5818 5818 5818 5818 5818 5818 5818 5817 5815 5814 5812 5810 5808 5806 5803 5801 5798 5795 5791 5788 5785 5781 5777 5774 5770 5767 5763 5760 5756 5753
5808 5808 5809 5811 5810 5809 5810 5811 5811 5811 5812 5812 5813 5814 5814 5814 5815 5815 5815 5815 5814 5813 5812 5811 5809 5807 5805 5803 5801 5798 5796 5793 5789 5786 5783 5779 5776 5773 5769 5766 5763 5759 5756 5753
5804 5804 5805 5808 5806 5805 5807 5807 5807 5807 5808 5808 5809 5810 5811 5811 5811 5811 5811 5811 5810 5809 5808 5807 5806 5804 5802 5800 5798 5796 5793 5790 5787 5784 5781 5778 5774 5771 5768 5765 5761 5758 5755 5752
5800 5799 5801 5802 5801 5802 5804 5804 5803 5803 5803 5804 5805 5806 5806 5806 5806 5806 5806 5806 5806 5805 5804 5803 5802 5800 5798 5797 5795 5792 5790 5787 5784 5781 5778 5775 5772 5769 5766 5763 5760 5757 5754 5751
5795 5795 5798 5797 5796 5797 5797 5797 5798 5798 5798 5799 5800 5800 5800 5801 5801 5801 5801 5801 5801 5800 5799 5798 5797 5796 5794 5792 5791 5788 5786 5784 5781 5778 5775 5773 5770 5767 5764 5761 5758 5755 5752 5749
5790 5792 5791 5790 5790 5790 5791 5791 5791 5792 5792 5793 5794 5794 5795 5795 5795 5795 5795 5795 5795 5795 5794 5793 5792 5791 5789 5788 5786 5784 5782 5779 5777 5774 5772 5769 5766 5764 5761 5758 5756 5753 5750 5747
5782 5783 5783 5783 5783 5783 5783 5784 5784 5785 5786 5786 5787 5787 5788 5788 5789 5789 5789 5789 5789 5788 5788 5787 5786 5785 5784 5782 5781 5779 5777 5775 5772 5770 5768 5765 5763 5760 5757 5755 5752 5749 5747 5744
5772 5774 5774 5775 5774 5775 5775 5776 5777 5778 5778 5779 5779 5780 5780 5781 5781 5781 5782 5782 5782 5781 5781 5780 5780 5779 5778 5776 5775 5773 5771 5769 5767 5765 5763 5760 5758 5755 5753 5750 5748 5745 5743 5740
5762 5764 5763 5766 5766 5766 5766 5767 5768 5769 5770 5770 5771 5772 5772 5773 5773 5773 5774 5774 5774 5774 5773 5773 5772 5772 5771 5769 5768 5767 5765 5763 5761 5759 5757 5755 5752 5750 5748 5745 5743 5740 5738 5736
5750 5752 5752 5754 5756 5756 5756 5757 5758 5759 5760 5761 5762 5763 5763 5764 5764 5765 5765 5765 5765 5765 5765 5765 5764 5764 5763 5762 5761 5760 5758 5757 5755 5753 5751 5748 5746 5744 5741 5739 5737 5735 5732 5730
5737 5738 5739 5741 5742 5744 5744 5746 5747 5748 5749 5750 5751 5752 5753 5754 5754 5755 5755 5756 5756 5756 5756 5756 5756 5755 5754 5753 5753 5752 5750 5749 5747 5746 5744 5741 5739 5737 5735 5732 5730 5728 5726 5723
5724 5724 5725 5727 5729 5730 5732 5733 5735 5736 5738 5739 5740 5741 5742 5743 5744 5744 5745 5745 5746 5746 5746 5746 5746 5746 5745 5744 5744 5743 5742 5741 5739 5738 5736 5734 5732 5730 5727 5725 5723 5720 5718 5715
5710 5710 5711 5713 5715 5717 5718 5720 5721 5723 5725 5726 5727 5729 5730 5731 5732 5733 5734 5734 5735 5735 5736 5736 5736 5736 5735 5735 5734 5734 5733 5731 5730 5729 5727 5725 5723 5721 5719 5717 5714 5712 5709 5707
5694 5695 5696 5698 5700 5702 5704 5706 5707 5709 5711 5713 5714 5716 5717 5718 5719 5720 5722 5723 5723 5724 5724 5725 5725 5725 5725 5724 5724 5723 5722 5721 5720 5719 5717 5715 5713 5711 5709 5707 5705 5703 5700 5698
5677 5679 5681 5683 5684 5686 5689 5691 5693 5694 5696 5699 5700 5702 5704 5705 5707 5708 5709 5710 5711 5712 5713 5713 5713 5713 5713 5713 5713 5712 5711 5710 5709 5708 5706 5705 5703 5701 5699 5697 5695 5692 5690 5687
5661 5663 5665 5667 5669 5671 5673 5675 5677 5679 5681 5683 5686 5688 5690 5691 5693 5694 5696 5697 5698 5699 5700 5700 5701 5701 5701 5701 5701 5700 5699 5699 5697 5696 5695 5693 5691 5690 5688 5686 5683 5681 5679 5676
5645 5647 5649 5651 5653 5655 5657 5659 5661 5663 5666 5668 5670 5672 5675 5677 5678 5680 5682 5683 5684 5685 5686 5687 5688 5688 5688 5688 5688 5688 5687 5686 5685 5684 5682 5681 5679 5678 5676 5674 5672 5670 5667 5665
5629 5631 5633 5635 5637 5639 5641 5643 5645 5648 5650 5652 5655 5657 5659 5661 5663 5665 5667 5668 5670 5671 5672 5673 5674 5674 5675 5675 5675 5674 5674 5673 5672 5671 5669 5668 5666 5665 5663 5661 5659 5657 5655 5652
5613 5615 5616 5619 5621 5623 5625 5627 5629 5632 5634 5636 5639 5641 5643 5645 5647 5649 5651 5653 5654 5656 5657 5658 5659 5660 5660 5660 5660 5660 5660 5659 5658 5657 5656 5655 5653 5652 5650 5648 5646 5644 5642 5639
5598 5599 5601 5603 5604 5607 5609 5611 5613 5616 5618 5620 5622 5625 5627 5629 5631 5634 5636 5638 5639 5641 5642 5643 5644 5645 5646 5646 5646 5646 5646 5645 5644 5643 5642 5641 5640 5638 5637 5635 5633 5631 5628 5626
5582 5584 5585 5587 5589 5591 5593 5595 5597 5600 5602 5604 5606 5608 5611 5613 5616 5618 5620 5622 5623 5625 5627 5628 5629 5630 5631 5631 5631 5631 5631 5631 5630 5629 5628 5627 5626 5625 5623 5621 5619 5617 5614 5612
5568 5569 5571 5572 5574 5576 5577 5580 5582 5584 5587 5589 5591 5593 5595 5598 5600 5602 5604 5606 5608 5610 5611 5613 5614 5615 5616 5616 5617 5617 5616 5616 5616 5615 5614 5613 5612 5610 5609 5607 5605 5603 5600 5598
5554 5556 5557 5558 5560 5561 5563 5565 5567 5569 5571 5573 5576 5578 5580 5582 5585 5587 5589 5591 5593 5595 5596 5598 5599 5600 5601 5601 5602 5602 5602 5602 5601 5601 5600 5599 5598 5597 5595 5593 5591 5589 5587 5584
5542 5542 5544 5545 5546 5547 5549 5551 5552 5554 5556 5558 5561 5563 5565 5567 5569 5572 5574 5576 5578 5580 5581 5582 5584 5585 5586 5587 5587 5587 5587 5587 5587 5587 5586 5585 5584 5583 5581 5579 5577 5575 5573 5571